Flag Weather past 2 weeks in Alexandroupoli, Greece

Now
39 °F

Partly sunny.


Feels Like: N/A
Forecast: 41 / 50 °F
Wind: N/A

Location: Alexandroupoli Airport

Current Time: Nov 27, 2014 at 11:29:45 AM

Latest Report: Nov 27, 2014 at 10:50 AM


Visibility: N/A

Pressure: 30.24 "Hg

Humidity: 65%

Dew point: 28 °F

Location of AlexandroupoliLocation

Historic Weather in Alexandroupoli — Graph

°F

Alexandroupoli temperature yesterday

Maximum temperature yesterday: 46 °F (at 12:20 PM)
Minimum temperature yesterday: 32 °F (at 8:50 PM)
Average temperature yesterday: 38 °F

Past Weeks' High & Low Weather Summary

 TemperatureHumidityPressure
High66 °F (Nov 19, 10:50 AM)100% (Nov 12, 9:50 AM)30.33 "Hg (Nov 12, 9:50 AM)
Low28 °F (Nov 27, 1:50 AM)41% (Nov 24, 1:50 PM)29.83 "Hg (Nov 13, 1:50 PM)
Average51 °F78%30.08 "Hg
* Reported Nov 12 9:20 AM — Nov 27 9:50 AM, Alexandroupoli, Weather by CustomWeather, © 2014

Note: Actual official high and low records may vary slightly from our data, if they occured in-between our weather recording intervals... More about our weather records

Advertising

Alexandroupoli weather history for previous 24 hours

 ConditionsComfort  
Time TempWeatherWind HumidityBarometerVisibility
9:50 AM
Nov 27
37 °FPartly sunny.N/A75%30.24 "HgN/A
9:20 AM36 °FPartly sunny.N/A81%30.24 "HgN/A
8:50 AM34 °FPartly sunny.N/A81%30.24 "HgN/A
8:20 AM32 °FPartly sunny.N/A87%30.21 "HgN/A
7:50 AM32 °FScattered clouds.N/A87%30.21 "HgN/A
7:20 AM28 °FPassing clouds.N/A86%30.21 "HgN/A
6:50 AM28 °FPassing clouds.N/A86%30.21 "HgN/A
6:20 AM28 °FPassing clouds.N/A86%30.21 "HgN/A
5:50 AM28 °FPassing clouds.N/A93%30.21 "HgN/A
5:20 AM28 °FPassing clouds.N/A86%30.21 "HgN/A
4:50 AM28 °FPassing clouds.N/A86%30.21 "HgN/A
4:20 AM28 °FClear.N/A86%30.21 "Hg10 mi
3:50 AM28 °FClear.N/A86%30.21 "Hg10 mi
2:50 AM28 °FClear.N/A86%30.24 "Hg10 mi
2:20 AM28 °FClear.N/A86%30.24 "Hg10 mi
1:50 AM28 °FClear.N/A86%30.24 "Hg10 mi
12:50 AM30 °FClear.N/A75%30.24 "Hg10 mi
12:20 AM32 °FClear.N/A80%30.24 "Hg10 mi
11:50 PM
Nov 26
32 °FClear.N/A80%30.24 "Hg10 mi
11:20 PM32 °FClear.N/A87%30.24 "Hg10 mi
10:50 PM32 °FClear.N/A87%30.24 "Hg10 mi
10:20 PM32 °FClear.N/A75%30.24 "Hg10 mi
9:50 PM32 °FClear.N/A75%30.24 "Hg10 mi
9:20 PM32 °FClear.N/A75%30.24 "Hg10 mi
8:50 PM32 °FClear.N/A75%30.24 "Hg10 mi
8:20 PM34 °FClear.N/A75%30.24 "Hg10 mi
7:50 PM34 °FClear.N/A75%30.24 "Hg10 mi
7:20 PM34 °FClear.N/A70%30.21 "Hg10 mi
6:50 PM36 °FClear.N/A65%30.21 "Hg10 mi
6:20 PM36 °FPassing clouds.N/A70%30.21 "HgN/A
5:50 PM37 °FPassing clouds.N/A65%30.21 "HgN/A
5:20 PM41 °FPassing clouds.N/A57%30.21 "HgN/A
4:50 PM41 °FPassing clouds.N/A57%30.21 "HgN/A
4:20 PM43 °FPassing clouds.N/A49%30.18 "HgN/A
3:50 PM43 °FPassing clouds.N/A49%30.18 "HgN/A
3:20 PM46 °FPassing clouds.N/A43%30.18 "HgN/A
2:50 PM46 °FPassing clouds.N/A43%30.18 "HgN/A
2:20 PM46 °FPassing clouds.N/A43%30.18 "HgN/A
1:50 PM46 °FPassing clouds.N/A43%30.18 "HgN/A
12:50 PM46 °FPassing clouds.N/A43%30.18 "HgN/A
12:20 PM46 °FPassing clouds.N/A43%30.18 "HgN/A
11:50 AM45 °FScattered clouds.N/A46%30.21 "HgN/A
Weather by CustomWeather, © 2014

See weather overviewHow to use our weather pages